DW9234 Weather Reports


Display with metric or nautical units.
time (UTC)temp
F
wind
direction
speed
MPH
gust
MPH
rain 1hr
in
rain 24hr
in
rain mn
in
humidity
%
barometer
mb
20260507102006 52 340 0.0 0.0 0.00 0.00 0.06 74 1013.0
20260507101004 52 340 0.0 0.0 0.00 0.00 0.06 73 1012.9
20260507100005 52 340 0.0 0.0 0.00 0.00 0.06 73 1013.0
20260507095003 52 340 0.0 0.0 0.00 0.00 0.06 73 1012.9
20260507094004 52 340 0.0 0.0 0.00 0.00 0.06 73 1012.7
20260507093004 52 340 0.0 0.0 0.00 0.00 0.06 73 1012.9
20260507092003 52 340 0.0 0.0 0.00 0.00 0.06 73 1012.7
20260507091004 52 340 0.0 0.0 0.00 0.00 0.06 73 1012.6
20260507090004 52 340 0.0 1.0 0.00 0.00 0.06 73 1012.5
20260507085003 52 340 0.0 0.0 0.00 0.00 0.06 73 1012.3
20260507084003 53 340 0.0 2.0 0.00 0.00 0.06 73 1012.0
20260507083004 53 339 0.0 2.0 0.00 0.00 0.06 73 1012.2
20260507082004 53 339 0.0 4.0 0.00 0.00 0.06 73 1012.1
20260507080004 53 327 0.0 1.0 0.00 0.00 0.06 73 1012.1
20260507075003 54 327 0.0 0.0 0.00 0.00 0.06 73 1012.1
20260507074003 54 327 0.0 2.0 0.00 0.00 0.06 72 1011.9
20260507073004 54 325 0.0 5.0 0.00 0.00 0.06 72 1012.3
20260507072004 54 51 1.0 4.0 0.00 0.00 0.06 72 1012.2
20260507071004 54 67 0.0 2.0 0.00 0.00 0.06 72 1012.4
20260507070007 55 67 1.0 5.0 0.00 0.00 0.06 72 1012.2
20260507065004 55 63 1.0 5.0 0.00 0.00 0.06 71 1012.5
20260507064004 56 9 0.0 1.0 0.00 0.00 0.06 71 1012.5
20260507063004 56 331 0.0 4.0 0.00 0.00 0.06 71 1012.4
20260507062004 57 296 0.0 2.0 0.00 0.00 0.05 70 1012.6
20260507060004 58 63 0.0 4.0 0.00 0.00 0.05 70 1012.0
20260507055004 58 63 2.0 5.0 0.00 0.00 0.05 69 1012.3
20260507054004 59 36 4.0 4.0 0.00 0.00 0.02 68 1012.5
20260507053004 59 275 0.0 5.0 0.00 0.00 0.01 67 1012.3
20260507051004 60 64 0.0 5.0 0.00 0.00 0.00 66 1011.8
20260507050003 60 28 0.0 5.0 0.00 0.00 0.00 66 1011.9
20260507045004 60 60 0.0 7.0 0.00 0.00 0.00 66 1011.4
20260507044004 61 63 0.0 5.0 0.00 0.00 0.00 67 1010.9
20260507043003 61 252 2.0 5.0 0.00 0.00 0.00 67 1011.1
20260507042004 61 5 0.0 5.0 0.00 0.00 0.00 67 1011.2
20260507041003 62 360 0.0 4.0 0.00 0.00 0.00 67 1011.1
20260507040003 62 289 1.0 2.0 0.00 0.00 0.09 67 1011.0
20260507035004 62 288 0.0 5.0 0.00 0.00 0.09 67 1010.8
20260507033004 63 299 1.0 4.0 0.00 0.00 0.09 68 1010.9
20260507032005 64 47 1.0 9.0 0.00 0.00 0.09 69 1011.0
20260507031003 65 355 1.0 6.0 0.00 0.00 0.09 71 1011.0
20260507030004 65 228 0.0 4.0 0.00 0.00 0.09 72 1010.6
20260507025003 65 143 0.0 0.0 0.00 0.00 0.09 71 1010.2
20260507024003 65 143 0.0 0.0 0.00 0.00 0.09 71 1010.4
20260507023004 65 143 0.0 0.0 0.00 0.00 0.08 71 1010.8
20260507022003 65 143 0.0 0.0 0.00 0.00 0.08 70 1010.5
20260507021004 65 143 0.0 0.0 0.00 0.00 0.08 70 1010.5
20260507020004 65 143 0.0 0.0 0.00 0.00 0.08 70 1010.4
20260507015004 66 143 0.0 0.0 0.00 0.00 0.08 69 1010.7
20260507014004 66 137 0.0 2.0 0.00 0.00 0.08 69 1010.7
20260507013003 66 132 1.0 2.0 0.00 0.00 0.08 69 1010.8
20260507012004 66 127 0.0 0.0 0.00 0.00 0.08 68 1010.5
20260507011003 66 127 0.0 1.0 0.00 0.00 0.08 68 1010.5
20260507010003 66 126 0.0 2.0 0.00 0.00 0.08 68 1010.4
20260507005004 66 126 0.0 2.0 0.00 0.00 0.08 68 1010.3
20260507004004 67 157 0.0 0.0 0.00 0.00 0.08 67 1010.4
20260507002003 67 157 0.0 1.0 0.00 0.00 0.08 67 1010.3
20260507000003 68 74 0.0 1.0 0.00 0.00 0.08 66 1009.7
20260506235005 68 74 0.0 2.0 0.00 0.00 0.08 66 1009.5
20260506234004 68 74 0.0 2.0 0.00 0.00 0.08 65 1009.6
20260506233003 68 61 0.0 2.0 0.00 0.00 0.08 65 1009.6
20260506232004 68 355 2.0 3.0 0.00 0.00 0.08 64 1009.7
20260506230003 68 76 1.0 4.0 0.00 0.00 0.08 64 1009.3
20260506225004 68 231 0.0 2.0 0.00 0.00 0.08 64 1009.7
20260506224003 68 72 2.0 5.0 0.00 0.00 0.08 63 1009.6
20260506223004 69 114 0.0 6.0 0.00 0.00 0.08 63 1009.6
20260506222004 69 313 1.0 8.0 0.00 0.00 0.08 63 1009.7
20260506221003 69 20 4.0 4.0 0.00 0.00 0.08 63 1009.6
20260506220003 69 243 0.0 6.0 0.00 0.00 0.08 62 1009.3
20260506215005 69 74 4.0 4.0 0.00 0.00 0.08 62 1009.4
20260506214003 69 139 0.0 10.0 0.00 0.00 0.08 61 1009.3
20260506213004 69 332 1.0 9.0 0.00 0.00 0.08 61 1009.2
20260506212004 69 334 5.0 10.0 0.00 0.00 0.08 62 1009.2
20260506211003 69 28 3.0 5.0 0.00 0.00 0.08 62 1009.2
20260506210004 69 265 1.0 6.0 0.00 0.00 0.08 62 1009.1
20260506205004 69 39 4.0 8.0 0.00 0.00 0.08 62 1009.1
20260506203004 68 169 3.0 7.0 0.00 0.00 0.08 63 1009.0
20260506201003 67 327 1.0 6.0 0.00 0.00 0.08 65 1009.0
20260506200004 67 269 2.0 7.0 0.00 0.00 0.08 66 1008.9
20260506194003 66 97 0.0 9.0 0.00 0.00 0.08 67 1009.2
20260506193004 66 322 2.0 9.0 0.00 0.00 0.08 67 1009.4
20260506192003 65 80 2.0 10.0 0.00 0.00 0.08 68 1009.4
20260506191004 65 73 3.0 12.0 0.00 0.00 0.08 68 1009.7
20260506190005 65 62 3.0 7.0 0.00 0.00 0.08 69 1009.7
20260506185004 64 239 1.0 10.0 0.00 0.00 0.08 70 1009.8
20260506184003 64 314 3.0 7.0 0.00 0.00 0.08 71 1009.7
20260506183003 64 80 4.0 7.0 0.00 0.00 0.08 72 1009.7
20260506182004 63 90 4.0 8.0 0.00 0.00 0.08 73 1010.0
20260506181003 63 215 2.0 6.0 0.00 0.00 0.08 73 1010.0
20260506174003 63 77 4.0 9.0 0.00 0.00 0.08 75 1010.2
20260506173003 62 37 1.0 7.0 0.00 0.00 0.08 75 1010.1
20260506172004 62 85 1.0 7.0 0.00 0.00 0.08 74 1010.2
20260506171004 62 130 4.0 10.0 0.00 0.00 0.08 74 1010.5
20260506170004 62 84 1.0 5.0 0.00 0.00 0.08 74 1010.6
20260506165005 62 320 3.0 7.0 0.00 0.00 0.08 74 1010.4
20260506164004 63 106 5.0 9.0 0.00 0.00 0.08 74 1010.6
20260506163003 63 95 5.0 7.0 0.00 0.00 0.08 74 1010.6
20260506162003 62 61 2.0 8.0 0.00 0.00 0.08 73 1010.8
20260506160004 62 254 4.0 7.0 0.00 0.00 0.07 71 1010.8
20260506155004 63 57 1.0 8.0 0.00 0.00 0.05 71 1011.2
20260506154003 63 71 5.0 7.0 0.00 0.00 0.05 70 1011.5
20260506153003 63 215 4.0 6.0 0.00 0.00 0.04 68 1011.6
20260506152003 64 30 0.0 5.0 0.00 0.00 0.02 67 1011.8
20260506151004 64 140 3.0 10.0 0.00 0.00 0.02 66 1011.6
20260506150004 64 279 5.0 6.0 0.00 0.00 0.01 65 1011.4
20260506145004 65 85 2.0 5.0 0.00 0.00 0.01 63 1011.5
20260506144003 66 98 2.0 9.0 0.00 0.00 0.00 61 1011.6
20260506142004 67 52 2.0 9.0 0.00 0.00 0.00 57 1011.6
20260506135003 68 42 5.0 8.0 0.00 0.00 0.00 53 1011.5
20260506134003 68 79 6.0 11.0 0.00 0.00 0.00 54 1011.4
20260506133005 67 92 4.0 7.0 0.00 0.00 0.00 55 1011.3
20260506131004 66 355 4.0 8.0 0.00 0.00 0.00 56 1011.5
20260506130005 66 105 1.0 10.0 0.00 0.00 0.00 56 1011.5
20260506125003 66 69 2.0 11.0 0.00 0.00 0.00 57 1011.6
20260506124004 66 31 2.0 9.0 0.00 0.00 0.00 58 1011.7
20260506123003 66 295 2.0 11.0 0.00 0.00 0.00 57 1011.7
20260506122004 66 52 6.0 8.0 0.00 0.00 0.00 58 1011.6
20260506121004 66 100 5.0 11.0 0.00 0.00 0.00 58 1011.5
20260506120004 66 61 7.0 9.0 0.00 0.00 0.00 59 1011.4
20260506115003 66 68 1.0 8.0 0.00 0.00 0.00 59 1011.3
20260506114005 66 109 1.0 10.0 0.00 0.00 0.00 59 1011.3
20260506112003 65 60 0.0 12.0 0.00 0.00 0.00 59 1011.2
20260506105004 65 28 0.0 9.0 0.00 0.00 0.00 59 1011.1
20260506104004 65 322 2.0 8.0 0.00 0.00 0.00 59 1011.2
20260506103004 65 355 1.0 9.0 0.00 0.00 0.00 59 1011.2